KM4USQ Weather Reports


time (UTC)temp
C
wind
direction
speed
KPH
gust
KPH
rain 1hr
cm
rain 24hr
cm
rain mn
cm
humidity
%
barometer
mb
20260510142027 25 285 1.6 4.8 0.00 0.00 0.00 77 1019.0
20260510141030 23 260 3.2 6.4 0.00 0.00 0.00 81 1019.1
20260510140015 22 277 1.6 4.8 0.00 0.00 0.00 84 1018.9
20260510135038 22 252 3.2 4.8 0.00 0.00 0.00 86 1018.8
20260510134021 22 239 0.0 3.2 0.00 0.00 0.00 87 1018.8
20260510133044 21 293 0.0 3.2 0.00 0.00 0.00 89 1018.7
20260510132022 21 281 1.6 4.8 0.00 0.00 0.00 91 1018.7
20260510131019 20 274 3.2 4.8 0.00 0.00 0.00 93 1018.7
20260510130016 20 0.0 0.0 0.00 0.00 0.00 96 1018.6
20260510125019 18 0.0 0.0 0.00 0.00 0.00 97 1018.6
20260510124022 18 0.0 0.0 0.00 0.00 0.00 98 1018.6
20260510123025 17 0.0 0.0 0.00 0.00 0.00 98 1018.6
20260510122028 16 0.0 0.0 0.00 0.00 0.00 98 1018.5
20260510121052 16 0.0 0.0 0.00 0.00 0.00 99 1018.4
20260510120037 15 0.0 0.0 0.00 0.00 0.00 99 1018.4
20260510115020 15 0.0 0.0 0.00 0.00 0.00 99 1018.3
20260510114023 15 0.0 0.0 0.00 0.00 0.00 98 1018.1
20260510113046 15 0.0 0.0 0.00 0.00 0.00 98 1018.1
20260510112029 15 0.0 0.0 0.00 0.00 0.00 98 1018.1
20260510111032 15 0.0 0.0 0.00 0.00 0.00 98 1018.1
20260510110017 15 0.0 0.0 0.00 0.00 0.00 97 1017.7
20260510105021 15 0.0 0.0 0.00 0.00 0.00 97 1017.6
20260510104024 15 0.0 0.0 0.00 0.00 0.00 97 1017.2
20260510103027 15 0.0 0.0 0.00 0.00 0.00 96 1017.2
20260510102030 15 0.0 0.0 0.00 0.00 0.00 96 1017.1
20260510101015 15 0.0 0.0 0.00 0.00 0.00 96 1017.1
20260510100018 15 0.0 0.0 0.00 0.00 0.00 96 1016.9
20260510095021 15 0.0 0.0 0.00 0.00 0.00 96 1016.9
20260510094019 15 0.0 0.0 0.00 0.00 0.00 96 1016.7
20260510093016 15 0.0 0.0 0.00 0.00 0.00 95 1016.4
20260510092031 15 0.0 0.0 0.00 0.00 0.00 94 1016.3
20260510091016 15 0.0 0.0 0.00 0.00 0.00 94 1016.2
20260510090019 16 0.0 0.0 0.00 0.00 0.00 94 1016.2
20260510085023 16 0.0 0.0 0.00 0.00 0.00 94 1016.4
20260510084025 16 0.0 0.0 0.00 0.00 0.00 93 1016.2
20260510083029 16 0.0 0.0 0.00 0.00 0.00 93 1016.0
20260510082032 16 0.0 0.0 0.00 0.00 0.00 94 1016.0
20260510081017 16 293 0.0 1.6 0.00 0.00 0.00 94 1016.2
20260510080041 16 0.0 0.0 0.00 0.00 0.00 94 1015.9
20260510075023 16 0.0 0.0 0.00 0.00 0.00 95 1016.0
20260510074027 16 0.0 0.0 0.00 0.00 0.00 92 1015.9
20260510073030 16 0.0 0.0 0.00 0.00 0.00 92 1015.9
20260510072015 16 0.0 0.0 0.00 0.00 0.00 91 1016.0
20260510071018 16 0.0 0.0 0.00 0.00 0.00 90 1016.2
20260510070022 16 0.0 0.0 0.00 0.00 0.00 89 1016.2
20260510065025 16 0.0 0.0 0.00 0.00 0.00 87 1016.2
20260510064028 16 0.0 0.0 0.00 0.00 0.00 87 1015.9
20260510063025 15 0.0 0.0 0.00 0.00 0.00 84 1015.8
20260510062016 15 0.0 0.0 0.00 0.00 0.00 83 1015.7
20260510061019 15 0.0 0.0 0.00 0.00 0.00 82 1015.7
20260510060016 16 0.0 0.0 0.00 0.00 0.00 82 1015.7
20260510055025 16 0.0 0.0 0.00 0.00 0.00 81 1015.9
20260510054028 16 0.0 0.0 0.00 0.00 0.00 81 1015.7
20260510053032 16 0.0 0.0 0.00 0.00 0.00 80 1015.5
20260510052057 16 0.0 0.0 0.00 0.00 0.00 81 1015.5
20260510051020 16 0.0 0.0 0.00 0.00 0.00 79 1015.5
20260510050023 16 0.0 0.0 0.00 0.00 0.00 78 1015.5
20260510045026 16 0.0 0.0 0.00 0.00 0.00 78 1015.4
20260510044029 16 0.0 0.0 0.00 0.00 0.00 78 1015.4
20260510043032 17 0.0 0.0 0.00 0.00 0.00 78 1015.4
20260510042018 17 0.0 0.0 0.00 0.00 0.00 77 1015.4
20260510041021 17 0.0 0.0 0.00 0.00 0.00 75 1015.5
20260510040024 17 0.0 0.0 0.00 0.00 0.00 75 1015.5
20260510035027 17 0.0 0.0 0.00 0.00 0.00 73 1015.7
20260510034030 18 0.0 0.0 0.00 0.00 0.00 71 1015.7
20260510033035 18 0.0 0.0 0.00 0.00 0.00 70 1015.6
20260510032019 18 0.0 0.0 0.00 0.00 0.00 69 1015.5
20260510031042 18 0.0 0.0 0.00 0.00 0.00 68 1015.5
20260510030025 19 0.0 0.0 0.00 0.00 0.00 66 1015.5
20260510025022 19 0.0 0.0 0.00 0.00 0.00 64 1015.3
20260510024019 20 0.0 0.0 0.00 0.00 0.00 62 1015.3
20260510023017 20 0.0 0.0 0.00 0.00 0.00 61 1015.2
20260510022020 20 0.0 0.0 0.00 0.00 0.00 59 1015.1
20260510021018 21 0.0 0.0 0.00 0.00 0.00 58 1014.9
20260510020020 21 0.0 0.0 0.00 0.00 0.00 56 1014.7
20260510015023 21 0.0 0.0 0.00 0.00 0.00 55 1014.4
20260510014026 22 0.0 0.0 0.00 0.00 0.00 55 1014.2
20260510013030 22 0.0 0.0 0.00 0.00 0.00 48 1014.1
20260510012033 23 0.0 0.0 0.00 0.00 0.00 45 1014.0
20260510011017 24 0.0 0.0 0.00 0.00 0.00 42 1013.9
20260510010021 25 0.0 0.0 0.00 0.00 0.00 41 1013.8
20260510005024 26 0.0 0.0 0.00 0.00 0.00 39 1013.5
20260510004028 27 0.0 0.0 0.00 0.00 0.00 37 1013.3
20260510003030 28 0.0 0.0 0.00 0.00 0.00 35 1013.2
20260510002035 30 0.0 0.0 0.00 0.00 0.00 32 1013.1
20260510001031 31 270 1.6 3.2 0.00 0.00 0.00 31 1013.0
20260510000016 33 270 1.6 3.2 0.00 0.00 0.00 28 1013.0
20260509235020 35 182 1.6 3.2 0.00 0.00 0.00 27 1012.9
20260509234023 35 0.0 0.0 0.00 0.00 0.00 27 1012.8
20260509233026 35 263 0.0 3.2 0.00 0.00 0.00 27 1012.9
20260509232043 35 293 0.0 3.2 0.00 0.00 0.00 26 1012.9
20260509231020 36 153 1.6 4.8 0.00 0.00 0.00 26 1012.9
20260509230017 36 99 1.6 3.2 0.00 0.00 0.00 25 1012.6
20260509225020 36 54 1.6 3.2 0.00 0.00 0.00 25 1012.6
20260509224023 36 93 1.6 4.8 0.00 0.00 0.00 24 1012.5
20260509223026 36 265 4.8 6.4 0.00 0.00 0.00 21 1012.5
20260509222035 37 270 1.6 4.8 0.00 0.00 0.00 25 1012.6
20260509221032 36 180 0.0 3.2 0.00 0.00 0.00 27 1012.6
20260509220017 36 252 1.6 4.8 0.00 0.00 0.00 24 1012.7
20260509215020 36 224 1.6 4.8 0.00 0.00 0.00 25 1012.7
20260509214024 36 122 3.2 6.4 0.00 0.00 0.00 24 1012.8
20260509213027 36 257 3.2 6.4 0.00 0.00 0.00 24 1012.9
20260509212030 36 293 0.0 3.2 0.00 0.00 0.00 25 1012.9
20260509211035 36 218 3.2 4.8 0.00 0.00 0.00 25 1012.9
20260509210018 35 243 1.6 3.2 0.00 0.00 0.00 27 1012.9
20260509205021 35 272 3.2 6.4 0.00 0.00 0.00 27 1013.0
20260509204024 34 282 3.2 6.4 0.00 0.00 0.00 29 1013.1
20260509203027 33 270 3.2 4.8 0.00 0.00 0.00 29 1013.2
20260509202031 34 14 3.2 4.8 0.00 0.00 0.00 30 1013.3
20260509201016 34 235 3.2 4.8 0.00 0.00 0.00 29 1013.3
20260509200039 34 245 3.2 6.4 0.00 0.00 0.00 29 1013.3
20260509195022 33 269 4.8 6.4 0.00 0.00 0.00 29 1013.3
20260509194019 34 165 4.8 6.4 0.00 0.00 0.00 30 1013.5
20260509193016 34 301 3.2 4.8 0.00 0.00 0.00 30 1013.5
20260509192031 34 239 1.6 4.8 0.00 0.00 0.00 30 1013.6
20260509191016 33 266 3.2 8.0 0.00 0.00 0.00 32 1013.6
20260509190020 34 276 4.8 8.0 0.00 0.00 0.00 29 1013.5
20260509185022 33 328 1.6 3.2 0.00 0.00 0.00 31 1013.7
20260509184025 33 7 3.2 6.4 0.00 0.00 0.00 31 1013.9
20260509183029 32 282 4.8 6.4 0.00 0.00 0.00 33 1013.8
20260509182032 33 203 3.2 3.2 0.00 0.00 0.00 36 1013.9
20260509181017 32 277 3.2 6.4 0.00 0.00 0.00 35 1013.9
20260509180020 32 223 3.2 4.8 0.00 0.00 0.00 35 1014.0
20260509175023 32 177 3.2 6.4 0.00 0.00 0.00 36 1014.1
20260509174027 31 122 3.2 8.0 0.00 0.00 0.00 38 1014.1
20260509173030 31 268 4.8 8.0 0.00 0.00 0.00 37 1014.2
20260509172015 32 282 3.2 6.4 0.00 0.00 0.00 38 1014.2
20260509171018 31 274 1.6 4.8 0.00 0.00 0.00 39 1014.1
20260509170021 31 268 4.8 8.0 0.00 0.00 0.00 38 1014.1
20260509165024 30 275 4.8 8.0 0.00 0.00 0.00 39 1014.1
20260509164028 31 272 3.2 6.4 0.00 0.00 0.00 40 1014.3
20260509163025 31 260 4.8 6.4 0.00 0.00 0.00 41 1014.2
20260509162016 31 345 3.2 4.8 0.00 0.00 0.00 43 1014.2
20260509161019 30 64 1.6 6.4 0.00 0.00 0.00 45 1014.1
20260509160036 30 337 1.6 3.2 0.00 0.00 0.00 45 1013.9
20260509155025 29 326 3.2 4.8 0.00 0.00 0.00 49 1013.8
20260509154028 28 313 1.6 4.8 0.00 0.00 0.00 51 1013.8
20260509153031 27 290 3.2 8.0 0.00 0.00 0.00 52 1013.7
20260509152016 27 274 3.2 6.4 0.00 0.00 0.00 52 1013.7
20260509151019 27 252 4.8 8.0 0.00 0.00 0.00 54 1013.7
20260509150023 26 328 3.2 6.4 0.00 0.00 0.00 57 1013.8
20260509145026 25 260 4.8 8.0 0.00 0.00 0.00 59 1014.0
20260509144029 25 277 3.2 6.4 0.00 0.00 0.00 61 1014.0
20260509143032 23 274 3.2 6.4 0.00 0.00 0.00 67 1014.1